Location: Augsburg
(48.3836°N, 10.8929°E)
Time: 07:23:19
(UTC+02:00)

ISS - Visible Passes

Search period start: 29 March 2017 00:00
Search period end: 08 April 2017 00:00
Orbit: 399 x 409 km, 51.6° (Epoch: 29 March)

Date Brightness Start Highest point End Pass type
(mag) Time Alt. Az. Time Alt. Az. Time Alt. Az.
29 Mar -3.8 21:42:08 10° WSW 21:45:05 70° SW 21:45:05 70° SW visible
30 Mar -3.7 20:49:52 10° SW 20:53:03 54° SSE 20:55:19 18° ENE visible
30 Mar -1.7 22:26:22 10° W 22:28:00 25° WNW 22:28:00 25° WNW visible
31 Mar -3.5 21:33:52 10° W 21:37:07 64° NNW 21:38:02 41° NE visible
31 Mar -0.4 23:10:42 10° WNW 23:10:43 10° WNW 23:10:43 10° WNW visible
01 Apr -3.8 20:41:24 10° WSW 20:44:40 87° NNW 20:47:58 10° ENE visible
01 Apr -2.3 22:18:11 10° WNW 22:20:37 37° NW 22:20:37 37° NW visible
02 Apr -3.0 21:25:39 10° W 21:28:51 48° N 21:30:25 25° NE visible
02 Apr -0.8 23:02:23 10° WNW 23:03:04 15° WNW 23:03:04 15° WNW visible
03 Apr -3.3 20:33:06 10° W 20:36:20 58° NNW 20:39:35 10° ENE visible
03 Apr -2.8 22:09:55 10° WNW 22:12:46 45° NNW 22:12:46 45° NNW visible
04 Apr -2.9 21:17:24 10° WNW 21:20:33 45° N 21:22:25 21° ENE visible
04 Apr -1.1 22:53:59 10° WNW 22:55:04 19° WNW 22:55:04 19° WNW visible
05 Apr -3.0 20:24:49 10° W 20:28:00 47° N 20:31:11 10° ENE visible
05 Apr -3.5 22:01:31 10° WNW 22:04:40 59° N 22:04:40 59° N visible
06 Apr -3.2 21:09:01 10° WNW 21:12:13 49° N 21:14:15 19° ENE visible
06 Apr -1.5 22:45:32 10° WNW 22:46:54 22° WNW 22:46:54 22° WNW visible
07 Apr -4.0 21:53:02 10° WNW 21:56:19 89° NE 21:56:28 80° ESE visible
